Location: Mantua Corners
(41.3103°N, 81.2212°W)
Time: 07:50:45
(UTC+00:00)

BlueWalker 3 - Pass Details

Date: 08 October 2024
Orbit: 470 x 482 km, 53.2° (Epoch: 03 November)

Event Time Altitude Azimuth Distance (km) Brightness Sun altitude
Exits shadow 09:56:04 33° 321° (NW) 806 2.7 -18.3°
Maximum altitude 09:56:20 34° 331° (NNW) 798 2.7 -18.3°
Drops below altitude 10° 09:59:44 10° 38° (NE) 1,635 5.2 -17.7°
Sets 10:02:01 0° 48° (NE) 2,515 6.4 -17.2°
